Location: Newark
(19.4083°N, 89.7712°W)
Time: 10:44:55
(UTC+00:00)

Hubble Space Telescope - Visible Passes

Search period start: 17 July 2019 00:00
Search period end: 27 July 2019 00:00
Orbit: 536 x 540 km, 28.5° (Epoch: 16 July)

Date Brightness Start Highest point End Pass type
(mag) Time Alt. Az. Time Alt. Az. Time Alt. Az.
22 Jul 1.4 11:07:06 10° SW 11:11:05 47° SSE 11:15:03 10° E visible
23 Jul 3.5 09:21:13 11° SE 09:21:13 11° SE 09:21:33 10° ESE visible
23 Jul 1.0 10:56:34 11° WSW 11:00:32 64° SSE 11:04:37 10° ENE visible
24 Jul 3.5 09:11:19 12° ESE 09:11:19 12° ESE 09:11:51 10° ESE visible
24 Jul 0.7 10:46:39 15° WSW 10:50:00 85° SSE 10:54:08 10° ENE visible
25 Jul 3.6 09:01:22 12° E 09:01:22 12° E 09:01:48 10° E visible
25 Jul 0.8 10:36:43 20° WSW 10:39:29 74° NNW 10:43:36 10° ENE visible
26 Jul 3.8 08:51:24 11° E 08:51:24 11° E 08:51:35 10° E visible
26 Jul 1.1 10:26:44 24° W 10:28:58 58° NNW 10:33:02 10° ENE visible
